• In Hungary
  • List of Countries
  • For 7 days
  • Water Temperature
  • Satellite Maps
  • Weather Map
  • News
  • Weather Widgets
  • user-avatar
    Login

    Hourly Weather Lahaur

    Today, 23 September, Saturday

    Time Temperature Precipitation Wind Pressure Humidity
    00:00 +28°C° 0 mm 2 mps 735 mmHg 39%
    01:00 +27°C° 0 mm 2 mps 735 mmHg 48%
    02:00 +26°C° 0 mm 2 mps 735 mmHg 57%
    03:00 +26°C° 0 mm 2 mps 735 mmHg 66%
    04:00 +25°C° 0 mm 2 mps 736 mmHg 74%
    05:00 +25°C° 0 mm 2 mps 735 mmHg 78%
    06:00 +26°C° 0 mm 2 mps 736 mmHg 74%
    07:00 +28°C° 0 mm 2 mps 736 mmHg 70%
    08:00 +29°C° 0 mm 2 mps 736 mmHg 66%
    09:00 +32°C° 0 mm 2 mps 737 mmHg 54%
    10:00 +35°C° 0 mm 1 mps 737 mmHg 42%
    11:00 +36°C° 0 mm 1 mps 737 mmHg 35%
    12:00 +37°C° 0 mm 1 mps 737 mmHg 30%
    13:00 +40°C° 0 mm 2 mps 737 mmHg 25%
    14:00 +41°C° 0 mm 2 mps 736 mmHg 20%
    15:00 +40°C° 0 mm 2 mps 736 mmHg 20%
    16:00 +40°C° 0 mm 2 mps 735 mmHg 19%
    17:00 +36°C° 0 mm 1 mps 736 mmHg 30%
    18:00 +34°C° 0 mm 1 mps 736 mmHg 34%
    19:00 +34°C° 0 mm 2 mps 736 mmHg 39%
    20:00 +31°C° 0 mm 3 mps 737 mmHg 43%
    21:00 +29°C° 0 mm 3 mps 737 mmHg 48%
    22:00 +28°C° 0 mm 3 mps 737 mmHg 53%
    23:00 +27°C° 0 mm 3 mps 737 mmHg 58%

    Tomorrow, 24 September, Sunday

    Time Temperature Precipitation Wind Pressure Humidity
    00:00 +26°C° 0 mm 3 mps 737 mmHg 61%
    01:00 +26°C° 0 mm 3 mps 737 mmHg 65%
    02:00 +25°C° 0 mm 2 mps 737 mmHg 68%
    03:00 +24°C° 0 mm 2 mps 737 mmHg 70%
    04:00 +24°C° 0 mm 2 mps 737 mmHg 72%
    05:00 +24°C° 0 mm 2 mps 737 mmHg 74%
    06:00 +25°C° 0 mm 2 mps 737 mmHg 69%
    07:00 +27°C° 0 mm 2 mps 738 mmHg 64%
    08:00 +29°C° 0 mm 2 mps 738 mmHg 58%
    09:00 +31°C° 0 mm 2 mps 738 mmHg 50%
    10:00 +35°C° 0 mm 2 mps 738 mmHg 41%
    11:00 +37°C° 0 mm 1 mps 738 mmHg 32%
    12:00 +39°C° 0 mm 1 mps 737 mmHg 28%
    13:00 +40°C° 0 mm 1 mps 737 mmHg 23%
    14:00 +42°C° 0 mm 1 mps 736 mmHg 19%
    15:00 +41°C° 0 mm 1 mps 736 mmHg 18%
    16:00 +41°C° 0 mm 1 mps 736 mmHg 18%
    17:00 +40°C° 0 mm 1 mps 735 mmHg 18%
    18:00 +37°C° 0 mm 1 mps 735 mmHg 20%
    19:00 +36°C° 0 mm 2 mps 735 mmHg 23%
    20:00 +34°C° 0 mm 2 mps 735 mmHg 25%
    21:00 +32°C° 0 mm 2 mps 735 mmHg 26%
    22:00 +31°C° 0 mm 2 mps 735 mmHg 28%
    23:00 +30°C° 0 mm 2 mps 735 mmHg 30%

    Day after tomorrow, 25 September, Monday

    Time Temperature Precipitation Wind Pressure Humidity
    00:00 +29°C° 0 mm 2 mps 735 mmHg 34%
    01:00 +28°C° 0 mm 2 mps 735 mmHg 37%
    02:00 +28°C° 0 mm 1 mps 734 mmHg 41%
    03:00 +27°C° 0 mm 1 mps 734 mmHg 44%
    04:00 +27°C° 0 mm 1 mps 734 mmHg 47%
    05:00 +26°C° 0 mm 1 mps 734 mmHg 49%
    06:00 +28°C° 0 mm 1 mps 735 mmHg 46%
    07:00 +30°C° 0 mm 1 mps 735 mmHg 43%
    08:00 +31°C° 0 mm 2 mps 736 mmHg 40%
    09:00 +34°C° 0 mm 1 mps 736 mmHg 34%
    10:00 +37°C° 0 mm 1 mps 736 mmHg 28%
    11:00 +41°C° 0 mm 1 mps 736 mmHg 21%
    12:00 +41°C° 0 mm 1 mps 735 mmHg 19%
    13:00 +42°C° 0 mm 1 mps 735 mmHg 16%
    14:00 +43°C° 0 mm 2 mps 734 mmHg 13%
    15:00 +42°C° 0 mm 2 mps 734 mmHg 14%
    16:00 +42°C° 0 mm 2 mps 734 mmHg 14%
    17:00 +41°C° 0 mm 2 mps 733 mmHg 14%
    18:00 +39°C° 0 mm 2 mps 734 mmHg 16%
    19:00 +37°C° 0 mm 2 mps 734 mmHg 18%
    20:00 +34°C° 0 mm 2 mps 734 mmHg 20%
    21:00 +32°C° 0 mm 2 mps 734 mmHg 21%
    22:00 +32°C° 0 mm 2 mps 734 mmHg 23%
    23:00 +31°C° 0 mm 2 mps 734 mmHg 24%

    26 September, Tuesday

    Time Temperature Precipitation Wind Pressure Humidity
    00:00 +30°C° 0 mm 2 mps 734 mmHg 25%
    01:00 +29°C° 0 mm 2 mps 734 mmHg 26%
    02:00 +28°C° 0 mm 1 mps 734 mmHg 27%
    03:00 +28°C° 0 mm 1 mps 734 mmHg 28%
    04:00 +27°C° 0 mm 1 mps 735 mmHg 29%
    05:00 +27°C° 0 mm 1 mps 735 mmHg 30%
    06:00 +29°C° 0 mm 1 mps 735 mmHg 28%
    07:00 +30°C° 0 mm 1 mps 736 mmHg 27%
    08:00 +32°C° 0 mm 2 mps 736 mmHg 25%
    09:00 +35°C° 0 mm 2 mps 736 mmHg 22%
    10:00 +38°C° 0 mm 2 mps 736 mmHg 19%
    11:00 +41°C° 0 mm 1 mps 736 mmHg 16%
    12:00 +41°C° 0 mm 2 mps 736 mmHg 14%
    13:00 +42°C° 0 mm 2 mps 735 mmHg 12%
    14:00 +43°C° 0 mm 2 mps 735 mmHg 11%
    15:00 +42°C° 0 mm 2 mps 735 mmHg 11%
    16:00 +42°C° 0 mm 2 mps 734 mmHg 11%
    17:00 +41°C° 0 mm 2 mps 734 mmHg 11%
    18:00 +39°C° 0 mm 2 mps 735 mmHg 13%
    19:00 +36°C° 0 mm 2 mps 735 mmHg 14%
    20:00 +34°C° 0 mm 2 mps 735 mmHg 15%
    21:00 +32°C° 0 mm 2 mps 735 mmHg 16%
    22:00 +31°C° 0 mm 2 mps 735 mmHg 17%
    23:00 +30°C° 0 mm 2 mps 735 mmHg 18%

    27 September, Wednesday

    Time Temperature Precipitation Wind Pressure Humidity
    00:00 +30°C° 0 mm 2 mps 735 mmHg 19%
    01:00 +29°C° 0 mm 2 mps 735 mmHg 20%
    02:00 +28°C° 0 mm 2 mps 735 mmHg 21%
    03:00 +27°C° 0 mm 1 mps 735 mmHg 22%
    04:00 +27°C° 0 mm 1 mps 735 mmHg 22%
    05:00 +27°C° 0 mm 1 mps 735 mmHg 23%
    06:00 +28°C° 0 mm 1 mps 735 mmHg 22%
    07:00 +30°C° 0 mm 1 mps 736 mmHg 20%
    08:00 +32°C° 0 mm 1 mps 736 mmHg 19%
    09:00 +35°C° 0 mm 1 mps 736 mmHg 17%
    10:00 +39°C° 0 mm 1 mps 737 mmHg 14%
    11:00 +41°C° 0 mm 1 mps 737 mmHg 12%
    12:00 +42°C° 0 mm 2 mps 736 mmHg 11%
    13:00 +43°C° 0 mm 2 mps 735 mmHg 9%
    14:00 +45°C° 0 mm 3 mps 735 mmHg 8%
    15:00 +44°C° 0 mm 3 mps 735 mmHg 8%
    16:00 +42°C° 0 mm 2 mps 734 mmHg 9%
    17:00 +41°C° 0 mm 2 mps 734 mmHg 9%
    18:00 +39°C° 0 mm 2 mps 734 mmHg 10%
    19:00 +36°C° 0 mm 2 mps 735 mmHg 11%
    20:00 +34°C° 0 mm 2 mps 735 mmHg 13%
    21:00 +32°C° 0 mm 2 mps 735 mmHg 14%
    22:00 +31°C° 0 mm 2 mps 735 mmHg 14%
    23:00 +30°C° 0 mm 2 mps 735 mmHg 15%

    28 September, Thursday

    Time Temperature Precipitation Wind Pressure Humidity
    00:00 +29°C° 0 mm 2 mps 735 mmHg 16%
    01:00 +28°C° 0 mm 2 mps 735 mmHg 17%
    02:00 +28°C° 0 mm 2 mps 734 mmHg 18%
    03:00 +27°C° 0 mm 1 mps 734 mmHg 18%
    04:00 +26°C° 0 mm 1 mps 734 mmHg 19%
    05:00 +26°C° 0 mm 1 mps 735 mmHg 20%
    06:00 +28°C° 0 mm 1 mps 735 mmHg 18%
    07:00 +30°C° 0 mm 1 mps 736 mmHg 17%
    08:00 +32°C° 0 mm 1 mps 736 mmHg 15%
    09:00 +35°C° 0 mm 1 mps 736 mmHg 14%
    10:00 +39°C° 0 mm 1 mps 736 mmHg 12%
    11:00 +41°C° 0 mm 1 mps 736 mmHg 10%
    12:00 +42°C° 0 mm 1 mps 736 mmHg 9%
    13:00 +43°C° 0 mm 2 mps 735 mmHg 8%
    14:00 +45°C° 0 mm 2 mps 734 mmHg 7%
    15:00 +43°C° 0 mm 2 mps 734 mmHg 7%
    16:00 +42°C° 0 mm 2 mps 734 mmHg 8%
    17:00 +41°C° 0 mm 2 mps 734 mmHg 8%
    18:00 +39°C° 0 mm 2 mps 734 mmHg 9%
    19:00 +36°C° 0 mm 2 mps 734 mmHg 11%
    20:00 +33°C° 0 mm 1 mps 735 mmHg 12%
    21:00 +32°C° 0 mm 2 mps 735 mmHg 12%
    22:00 +31°C° 0 mm 2 mps 735 mmHg 13%
    23:00 +30°C° 0 mm 2 mps 735 mmHg 14%
    Show more